Regional Weather Roundup
Issued by NWS

Home | Current Version | Previous Version | Graphics & Text | Print | Product List | Glossary On
Versions: 1 2 3 4 5 6 7 8 9 10 11 12 13 14 15 16 17 18 19 20 21 22 23 24 25 26 27 28 29 30 31 32 33 34 35 36 37 38 39 40 41 42 43 44 45 46 47 48 49 50
000
ASUS43 KBIS 130810
RWRND

NORTH DAKOTA REGIONAL WEATHER ROUNDUP
NATIONAL WEATHER SERVICE BISMARCK ND
200 AM CST SAT FEB 13 2016

NOTE: "FAIR" INDICATES FEW OR NO CLOUDS BELOW 12,000 FEET WITH NO
SIGNIFICANT WEATHER AND/OR OBSTRUCTIONS TO VISIBILITY.


NDZ001>003-009>011-017-130900-
NORTHWEST NORTH DAKOTA

CITY           SKY/WX    TMP DP  RH WIND       PRES   REMARKS
WILLISTON      FLURRIES  13   7  77 SE10      30.25F WCI   0
MINOT          CLOUDY     7  -4  60 SE12      30.40F WCI  -8
MINOT AFB      CLOUDY     5  -2  73 SE14      30.39F WCI -12
$$

NDZ018>021-031>035-040>046-130900-
SOUTHWEST NORTH DAKOTA

CITY           SKY/WX    TMP DP  RH WIND       PRES   REMARKS
BISMARCK       CLOUDY     8  -3  61 SE13      30.45F WCI  -8
DICKINSON      LGT SNOW  10   6  84 SE22      30.20F FOG     WCI -10
GARRISON         N/A      5  -3  69 SE14      30.38F WCI -12
HETTINGER ARPT LGT SNOW  14  10  84 SE16      30.25F FOG     WCI  -2
$$

NDZ004>008-012>016-024-026-027-054-130900-
NORTHEAST NORTH DAKOTA

CITY           SKY/WX    TMP DP  RH WIND       PRES   REMARKS
GRAND FORKS    CLOUDY    -8 -14  74 CALM      30.65F
GRND FRKS AFB  CLOUDY   -10 -16  73 SW2       30.63F
DEVILS LAKE    CLOUDY   -14 -19  79 SE5       30.53F WCI -26
$$

NDZ022-023-025-028>030-036>039-047>053-130900-
SOUTHEAST NORTH DAKOTA

CITY           SKY/WX    TMP DP  RH WIND       PRES   REMARKS
FARGO          CLOUDY    -8 -14  74 CALM      30.65F
JAMESTOWN      CLOUDY    -6 -13  71 SE6       30.54F WCI -19
$$




USA.gov is the U.S. government's official web portal to all federal, state and local government web resources and services.